IBUKIYAMA Weather Reports


Display with metric or nautical units.
time (UTC)temp
F
wind
direction
speed
MPH
gust
MPH
rain 1hr
in
rain 24hr
in
rain mn
in
humidity
%
barometer
mb
20260505080051 53 136 11.0 17.0 0.00 0.00 0.00 70 878.8
20260505075034 52 91 11.0 18.0 0.00 0.04 0.00 69 878.8
20260505074038 54 129 10.0 18.0 0.00 0.04 0.00 66 878.9
20260505073035 53 116 11.0 17.0 0.00 0.04 0.00 63 878.9
20260505072037 53 112 10.0 16.0 0.00 0.04 0.00 61 878.8
20260505071019 54 135 10.0 18.0 0.00 0.04 0.00 62 878.7
20260505070037 55 117 11.0 17.0 0.00 0.04 0.00 60 878.6
20260505065035 55 126 10.0 20.0 0.00 0.08 0.00 59 878.8
20260505064020 55 119 13.0 21.0 0.00 0.08 0.00 52 878.7
20260505063038 55 104 11.0 18.0 0.00 0.08 0.00 53 878.8
20260505062037 56 113 12.0 18.0 0.00 0.08 0.00 50 878.9
20260505061032 56 107 8.0 17.0 0.00 0.08 0.00 48 878.8
20260505060032 56 121 11.0 21.0 0.00 0.08 0.00 48 878.7
20260505055020 57 101 12.0 18.0 0.00 0.08 0.00 47 878.8
20260505054037 57 103 10.0 18.0 0.00 0.08 0.00 48 878.7
20260505053018 57 85 12.0 17.0 0.00 0.08 0.00 44 878.7
20260505052037 57 100 10.0 16.0 0.00 0.08 0.00 47 878.7
20260505051047 56 359 6.0 13.0 0.00 0.08 0.00 55 878.8
20260505041036 53 317 4.0 9.0 0.00 0.08 0.00 63 878.5
20260505040112 53 131 2.0 15.0 0.00 0.08 0.00 67 878.7
20260505035045 53 359 4.0 23.0 0.00 0.08 0.00 70 878.6
20260505034042 52 276 3.0 8.0 0.00 0.08 0.00 70 878.6
20260505033059 51 359 0.0 6.0 0.00 0.08 0.00 72 878.5
20260505032055 50 86 2.0 6.0 0.00 0.08 0.00 75 878.5
20260505031110 50 359 1.0 6.0 0.00 0.08 0.00 78 878.5
20260505030037 50 359 2.0 6.0 0.00 0.08 0.00 77 878.5
20260505025036 50 334 1.0 6.0 0.00 0.08 0.00 78 878.4
20260505024046 50 359 1.0 6.0 0.00 0.08 0.00 79 878.5
20260505023030 49 359 1.0 6.0 0.00 0.08 0.00 78 878.4
20260505022043 49 359 1.0 5.0 0.00 0.08 0.00 77 878.5
20260505021059 48 359 2.0 5.0 0.00 0.08 0.00 79 878.7
20260505020043 47 330 2.0 8.0 0.00 0.08 0.00 68 878.6
20260505015030 47 359 3.0 6.0 0.00 0.08 0.00 82 878.7
20260505014105 46 359 2.0 5.0 0.00 0.08 0.00 81 878.7
20260505013035 46 33 3.0 6.0 0.00 0.08 0.00 79 878.6
20260505012047 46 359 1.0 4.0 0.00 0.08 0.00 79 878.6
20260505011035 46 23 1.0 6.0 0.00 0.08 0.00 75 878.5
20260505010027 45 359 2.0 5.0 0.00 0.08 0.00 73 878.6
20260505005025 44 32 0.0 5.0 0.00 0.08 0.00 79 878.5
20260505004025 44 359 2.0 5.0 0.00 0.08 0.00 68 878.4
20260505003027 45 324 3.0 6.0 0.00 0.08 0.00 67 878.2
20260505002021 46 43 1.0 8.0 0.00 0.08 0.00 59 878.2
20260505001047 44 359 2.0 6.0 0.00 0.08 0.00 62 878.0
20260505000031 45 28 4.0 9.0 0.00 0.08 0.00 51 878.2
20260504235034 45 359 3.0 9.0 0.00 0.08 0.00 53 878.0
20260504234052 46 359 4.0 9.0 0.00 0.08 0.00 54 877.9
20260504233054 46 52 2.0 11.0 0.00 0.08 0.00 53 877.8
20260504232050 45 94 4.0 10.0 0.00 0.08 0.00 55 877.8
20260504231021 43 359 4.0 8.0 0.00 0.08 0.00 59 877.7
20260504230024 42 57 5.0 9.0 0.00 0.08 0.00 57 877.5
20260504225019 42 44 2.0 9.0 0.00 0.08 0.00 58 877.6
20260504224042 41 359 1.0 5.0 0.00 0.08 0.00 59 877.5
20260504223040 41 359 1.0 9.0 0.00 0.08 0.00 61 877.5
20260504222041 40 359 3.0 9.0 0.00 0.08 0.00 61 877.3
20260504221039 40 359 5.0 13.0 0.00 0.08 0.00 63 877.3
20260504220030 39 359 5.0 9.0 0.00 0.08 0.00 62 877.0
20260504215028 39 41 3.0 9.0 0.00 0.08 0.00 65 876.9
20260504214025 38 50 2.0 8.0 0.00 0.08 0.00 69 876.8
20260504213024 37 40 4.0 9.0 0.00 0.08 0.00 68 876.6
20260504212016 37 34 1.0 10.0 0.00 0.08 0.00 70 876.3
20260504211044 37 359 1.0 9.0 0.00 0.08 0.00 70 876.1
20260504210044 36 359 3.0 9.0 0.00 0.08 0.00 70 876.0
20260504205035 36 303 2.0 8.0 0.00 0.08 0.00 72 875.7
20260504204034 36 359 4.0 10.0 0.00 0.08 0.00 72 875.4
20260504203036 36 293 2.0 9.0 0.00 0.08 0.00 75 875.4
20260504202035 36 359 3.0 13.0 0.00 0.08 0.00 74 875.0
20260504201034 35 309 1.0 13.0 0.00 0.08 0.00 76 874.9
20260504200053 35 359 3.0 17.0 0.00 0.08 0.00 77 874.8
20260504195023 35 359 3.0 12.0 0.00 0.08 0.00 79 874.7
20260504194020 34 359 6.0 12.0 0.00 0.08 0.00 81 874.5
20260504193024 34 346 3.0 10.0 0.00 0.08 0.00 85 874.4
20260504192025 34 359 4.0 11.0 0.00 0.08 0.00 86 874.3
20260504191028 34 359 5.0 10.0 0.00 0.08 0.00 86 874.3
20260504190053 34 311 4.0 13.0 0.00 0.08 0.00 86 874.2
20260504185026 34 335 5.0 13.0 0.00 0.12 0.00 86 874.1
20260504184027 34 359 4.0 11.0 0.00 0.12 0.00 88 874.0
20260504183028 34 359 4.0 12.0 0.00 0.12 0.00 91 874.0
20260504182044 34 314 4.0 11.0 0.00 0.12 0.00 93 873.8
20260504181024 33 328 6.0 10.0 0.00 0.12 0.00 95 873.7
20260504180045 33 316 7.0 11.0 0.00 0.12 0.00 96 873.6
20260504175046 33 309 7.0 12.0 0.00 0.12 0.00 95 873.4
20260504174025 33 310 8.0 12.0 0.00 0.12 0.00 98 873.3
20260504173028 33 310 6.0 15.0 0.00 0.12 0.00 99 873.4
20260504172019 33 320 5.0 12.0 0.00 0.12 0.00 99 873.1
20260504171023 33 326 7.0 16.0 0.00 0.12 0.00 99 873.0
20260504151033 34 322 8.0 15.0 0.00 0.16 0.00 98 872.6
20260504141037 35 282 9.0 24.0 0.00 0.20 0.03 98 871.9
20260504081021 39 301 21.0 31.0 0.00 0.43 0.03 99 866.8